SCP
0 0 0 0 0 0 0 0 0 0 0 0 1 1 1 1 1 1 1 1 0 1 0 0 1 0 1 1 1 0 0 0
0 0 0 0 0 0 0 1 1 0 0 0 0 1 1 1 1 1 1 1 0 0 0 0 0 1 1 0 0 0 0 0
0 0 0 0 0 0 0 1 1 0 0 0 0 0 0 1 1 1 1 1 0 0 0 0 0 0 0 0 0 0 0 0
0 0 0 0 0 0 0 1 1 1 0 0 0 0 0 1 1 1 1 0 0 0 0 0 0 0 0 0 0 0 0 0
0 0 0 0 0 0 0 0 1 1 0 0 0 0 1 1 1 1 1 0 0 0 0 0 0 0 0 0 0 0 0 0
0 0 0 0 0 0 0 0 1 1 1 0 1 1 1 1 1 1 1 0 0 0 0 0 0 0 0 0 0 0 0 0
0 0 0 0 0 0 0 0 1 1 1 1 1 1 1 1 1 1 1 0 0 0 0 0 0 0 0 0 0 0 0 0
0 0 0 0 0 0 0 0 1 1 1 0 1 1 1 1 1 1 1 1 0 0 0 0 0 0 0 0 0 0 0 0
0 0 0 0 0 0 0 0 0 1 1 1 1 1 1 1 1 1 1 1 0 0 0 0 0 0 0 0 0 0 0 0
0 0 0 0 0 0 0 0 0 1 1 2 1 1 0 0 1 1 1 1 0 0 0 0 0 0 0 0 0 0 0 0
0 0 0 0 0 0 0 0 1 1 1 0 0 0 0 0 0 1 0 0 0 0 0 0 0 0 0 0 0 0 0 0
0 0 0 0 0 0 0 1 1 1 1 0 0 0 0 0 0 0 0 0 0 0 0 0 0 0 0 0 0 0 0 0
0 0 -0 0 0 0 1 1 1 1 0 0 0 0 0 0 0 0 0 0 0 0 0 0 0 0 0 0 0 0 0 0
0 -0 -0 0 1 1 1 1 0 0 0 0 0 0 0 0 0 0 0 0 0 0 0 0 0 0 0 0 0 0 0 0
0 0 0 1 1 1 1 0 0 0 0 0 0 0 0 0 0 0 0 0 0 0 0 0 0 0 0 0 0 0 0 0
0 0 0 0 0 0 0 0 0 0 0 0 0 0 0 0 0 0 0 0 0 0 0 0 0 0 0 0 0 0 0 0
0 0 0 0 0 0 0 0 0 0 0 0 0 0 0 0 0 0 0 0 0 0 0 0 0 0 0 0 0 0 0 0
0 0 0 0 0 0 0 0 0 0 0 0 0 0 0 0 0 0 0 0 0 0 0 0 0 0 0 0 0 0 0 -0
0 0 -0 0 0 0 0 0 0 0 0 0 0 0 0 0 0 0 0 0 0 0 0 0 0 0 0 0 0 0 0 0
0 -0 -0 -0 -0 0 0 0 -0 0 0 0 0 0 0 0 0 0 -0 0 0 -0 0 0 0 0 0 0 0 0 0 0
Wind_Speed_500mb
30 35 47 51 50 45 44 52 60 64 70 76 82 83 80 77 78 77 74 65 56 49 39 32 25 23 24 22 21 22 20 18
32 42 41 50 53 51 51 49 54 57 66 75 82 84 88 87 85 83 80 75 65 57 47 37 30 29 29 26 25 24 24 22
64 60 60 55 53 55 57 61 60 57 65 70 71 79 89 94 88 89 86 82 71 61 51 42 37 36 34 28 29 29 30 28
68 66 63 57 52 65 71 69 69 63 59 55 52 68 86 97 95 90 89 82 73 62 55 48 41 39 35 32 32 34 34 34
79 78 75 77 81 83 79 59 71 75 63 55 49 58 78 82 91 92 85 80 69 63 58 47 40 36 36 36 35 37 39 38
81 79 81 85 84 83 75 69 58 64 62 50 51 58 68 79 79 86 71 66 56 63 52 44 35 32 37 39 36 38 39 42
83 88 97 97 83 74 76 71 53 57 54 55 59 63 70 80 74 68 57 49 51 54 46 39 30 32 36 36 36 39 41 43
94 88 86 84 81 78 70 63 53 57 54 62 70 72 72 74 64 54 48 49 53 49 38 36 34 29 28 31 37 41 42 40
89 96 90 82 75 71 53 60 61 65 58 69 77 74 69 62 52 44 43 44 39 36 33 36 33 27 27 33 39 38 40 35
68 65 59 50 49 53 54 58 59 62 61 68 75 69 64 51 42 43 41 36 39 34 32 36 27 29 32 36 37 39 37 33
78 67 70 67 60 61 62 54 49 54 59 69 67 52 44 46 48 50 48 33 33 39 35 33 29 32 36 36 36 34 28 25
70 73 66 60 58 65 58 53 49 51 57 57 54 54 53 55 49 42 31 30 31 36 35 31 33 32 35 30 27 26 25 23
79 75 71 63 52 50 62 56 48 43 41 39 44 48 49 45 39 30 24 29 30 34 33 30 31 34 25 22 22 23 22 24
52 62 66 72 55 42 49 48 37 31 29 30 33 43 47 43 37 28 28 31 34 35 30 34 30 23 18 18 18 18 18 21
53 58 58 33 30 39 40 38 34 30 31 33 36 40 41 38 32 31 32 33 33 31 28 26 20 17 16 14 12 14 14 13
62 44 24 26 38 42 40 38 38 37 39 41 39 38 36 33 28 27 30 27 24 22 20 16 16 17 16 15 13 15 12 11
32 25 35 44 42 39 40 41 43 43 42 41 40 37 32 28 31 29 23 20 17 17 11 11 10 9 11 11 16 18 16 12
31 38 45 44 42 44 43 43 49 47 44 40 35 29 26 26 26 23 20 15 11 15 13 10 6 7 10 15 18 17 16 16
46 50 48 47 48 48 48 53 52 49 42 36 32 26 24 21 17 18 17 14 18 19 15 10 1 5 9 12 12 10 18 19
57 55 53 52 54 53 54 53 51 44 36 30 27 21 15 15 15 13 19 23 23 18 9 1 5 12 12 11 14 25 23 23
Wind_Direction_500mb
248 240 250 243 253 252 251 238 239 243 244 242 238 235 237 237 240 239 239 237 236 237 239 246 256 257 265 272 273 280 277 286
274 297 290 262 267 279 274 260 245 243 240 242 242 240 238 238 240 241 240 237 235 238 240 247 256 254 260 263 269 280 273 272
288 297 295 288 283 277 277 271 261 256 241 240 243 246 244 241 242 243 242 241 237 239 242 248 256 253 256 259 264 279 281 263
286 289 293 287 288 294 289 275 263 260 250 241 246 246 246 243 242 245 245 243 241 242 246 248 251 253 260 260 263 273 283 269
283 290 292 290 289 289 281 278 268 261 245 240 243 245 248 249 248 246 246 246 242 246 244 247 244 253 260 258 259 269 280 276
288 289 288 287 287 291 281 276 265 256 240 244 245 247 247 246 250 245 246 246 242 239 236 230 240 255 262 261 263 272 278 272
279 281 284 287 285 285 282 269 261 255 241 241 244 245 244 244 251 241 238 231 227 230 216 228 241 258 262 262 269 279 275 271
281 282 284 284 287 289 282 256 255 238 243 241 241 242 243 244 248 234 233 230 224 214 214 226 243 255 266 268 279 281 279 276
280 286 285 286 280 280 262 245 245 235 237 237 238 239 238 242 231 225 223 224 241 209 219 230 242 267 281 275 276 277 277 275
285 290 288 277 284 268 256 241 239 240 242 239 237 239 235 233 219 215 216 237 213 218 227 232 258 271 279 280 279 281 276 273
283 285 282 281 277 257 243 238 241 245 242 236 235 235 226 207 202 205 206 210 217 218 225 237 258 272 282 280 277 276 269 260
276 282 277 283 285 251 242 243 245 239 238 235 235 227 201 196 198 206 205 183 197 208 222 241 259 274 280 274 265 263 253 246
269 270 283 287 282 254 248 242 227 231 235 227 222 219 203 187 186 194 184 189 205 212 225 249 266 275 273 257 257 253 250 242
276 287 281 282 274 249 220 212 205 206 206 207 209 204 196 188 187 189 194 199 207 217 239 257 268 261 260 256 251 248 245 241
283 286 281 265 217 195 192 188 178 177 180 173 181 191 197 197 188 189 203 209 219 232 254 268 260 245 253 253 245 245 238 237
275 269 244 186 174 175 173 170 162 159 165 170 176 182 184 182 189 200 207 208 229 249 264 257 229 243 250 248 242 238 235 235
236 212 177 169 167 164 165 159 153 158 164 169 172 171 176 182 183 189 200 226 244 259 222 205 221 236 249 248 241 240 238 239
188 173 164 160 161 159 158 156 154 159 163 166 165 163 167 178 189 202 213 227 231 179 172 182 193 260 273 260 250 237 235 239
165 162 157 159 159 157 156 157 158 161 166 166 165 164 164 174 188 211 216 190 165 159 150 147 77 321 295 282 272 243 232 218
162 158 158 160 159 159 159 160 161 162 162 164 165 164 142 175 180 185 184 166 160 154 147 208 309 323 307 291 263 248 224 218
Wind_Speed_850mb
30 35 47 51 50 45 44 52 60 64 70 76 82 83 80 77 78 77 74 65 56 49 39 32 25 23 24 22 21 22 20 18
32 42 41 50 53 51 51 49 54 57 66 75 82 84 88 87 85 83 80 75 65 57 47 37 30 29 29 26 25 24 24 22
64 60 60 55 53 55 57 61 60 57 65 70 71 79 89 94 88 89 86 82 71 61 51 42 37 36 34 28 29 29 30 28
68 66 63 57 52 65 71 69 69 63 59 55 52 68 86 97 95 90 89 82 73 62 55 48 41 39 35 32 32 34 34 34
79 78 75 77 81 83 79 59 71 75 63 55 49 58 78 82 91 92 85 80 69 63 58 47 40 36 36 36 35 37 39 38
81 79 81 85 84 83 75 69 58 64 62 50 51 58 68 79 79 86 71 66 56 63 52 44 35 32 37 39 36 38 39 42
83 88 97 97 83 74 76 71 53 57 54 55 59 63 70 80 74 68 57 49 51 54 46 39 30 32 36 36 36 39 41 43
94 88 86 84 81 78 70 63 53 57 54 62 70 72 72 74 64 54 48 49 53 49 38 36 34 29 28 31 37 41 42 40
89 96 90 82 75 71 53 60 61 65 58 69 77 74 69 62 52 44 43 44 39 36 33 36 33 27 27 33 39 38 40 35
68 65 59 50 49 53 54 58 59 62 61 68 75 69 64 51 42 43 41 36 39 34 32 36 27 29 32 36 37 39 37 33
78 67 70 67 60 61 62 54 49 54 59 69 67 52 44 46 48 50 48 33 33 39 35 33 29 32 36 36 36 34 28 25
70 73 66 60 58 65 58 53 49 51 57 57 54 54 53 55 49 42 31 30 31 36 35 31 33 32 35 30 27 26 25 23
79 75 71 63 52 50 62 56 48 43 41 39 44 48 49 45 39 30 24 29 30 34 33 30 31 34 25 22 22 23 22 24
52 62 66 72 55 42 49 48 37 31 29 30 33 43 47 43 37 28 28 31 34 35 30 34 30 23 18 18 18 18 18 21
53 58 58 33 30 39 40 38 34 30 31 33 36 40 41 38 32 31 32 33 33 31 28 26 20 17 16 14 12 14 14 13
62 44 24 26 38 42 40 38 38 37 39 41 39 38 36 33 28 27 30 27 24 22 20 16 16 17 16 15 13 15 12 11
32 25 35 44 42 39 40 41 43 43 42 41 40 37 32 28 31 29 23 20 17 17 11 11 10 9 11 11 16 18 16 12
31 38 45 44 42 44 43 43 49 47 44 40 35 29 26 26 26 23 20 15 11 15 13 10 6 7 10 15 18 17 16 16
46 50 48 47 48 48 48 53 52 49 42 36 32 26 24 21 17 18 17 14 18 19 15 10 1 5 9 12 12 10 18 19
57 55 53 52 54 53 54 53 51 44 36 30 27 21 15 15 15 13 19 23 23 18 9 1 5 12 12 11 14 25 23 23
Wind_Direction_850mb
248 240 250 243 253 252 251 238 239 243 244 242 238 235 237 237 240 239 239 237 236 237 239 246 256 257 265 272 273 280 277 286
274 297 290 262 267 279 274 260 245 243 240 242 242 240 238 238 240 241 240 237 235 238 240 247 256 254 260 263 269 280 273 272
288 297 295 288 283 277 277 271 261 256 241 240 243 246 244 241 242 243 242 241 237 239 242 248 256 253 256 259 264 279 281 263
286 289 293 287 288 294 289 275 263 260 250 241 246 246 246 243 242 245 245 243 241 242 246 248 251 253 260 260 263 273 283 269
283 290 292 290 289 289 281 278 268 261 245 240 243 245 248 249 248 246 246 246 242 246 244 247 244 253 260 258 259 269 280 276
288 289 288 287 287 291 281 276 265 256 240 244 245 247 247 246 250 245 246 246 242 239 236 230 240 255 262 261 263 272 278 272
279 281 284 287 285 285 282 269 261 255 241 241 244 245 244 244 251 241 238 231 227 230 216 228 241 258 262 262 269 279 275 271
281 282 284 284 287 289 282 256 255 238 243 241 241 242 243 244 248 234 233 230 224 214 214 226 243 255 266 268 279 281 279 276
280 286 285 286 280 280 262 245 245 235 237 237 238 239 238 242 231 225 223 224 241 209 219 230 242 267 281 275 276 277 277 275
285 290 288 277 284 268 256 241 239 240 242 239 237 239 235 233 219 215 216 237 213 218 227 232 258 271 279 280 279 281 276 273
283 285 282 281 277 257 243 238 241 245 242 236 235 235 226 207 202 205 206 210 217 218 225 237 258 272 282 280 277 276 269 260
276 282 277 283 285 251 242 243 245 239 238 235 235 227 201 196 198 206 205 183 197 208 222 241 259 274 280 274 265 263 253 246
269 270 283 287 282 254 248 242 227 231 235 227 222 219 203 187 186 194 184 189 205 212 225 249 266 275 273 257 257 253 250 242
276 287 281 282 274 249 220 212 205 206 206 207 209 204 196 188 187 189 194 199 207 217 239 257 268 261 260 256 251 248 245 241
283 286 281 265 217 195 192 188 178 177 180 173 181 191 197 197 188 189 203 209 219 232 254 268 260 245 253 253 245 245 238 237
275 269 244 186 174 175 173 170 162 159 165 170 176 182 184 182 189 200 207 208 229 249 264 257 229 243 250 248 242 238 235 235
236 212 177 169 167 164 165 159 153 158 164 169 172 171 176 182 183 189 200 226 244 259 222 205 221 236 249 248 241 240 238 239
188 173 164 160 161 159 158 156 154 159 163 166 165 163 167 178 189 202 213 227 231 179 172 182 193 260 273 260 250 237 235 239
165 162 157 159 159 157 156 157 158 161 166 166 165 164 164 174 188 211 216 190 165 159 150 147 77 321 295 282 272 243 232 218
162 158 158 160 159 159 159 160 161 162 162 164 165 164 142 175 180 185 184 166 160 154 147 208 309 323 307 291 263 248 224 218